Oak Harbor, Ohio
Current Conditions -  °F | °C
As of 12:33 PM on Thursday 23 Oct 2014 (Local Time) from KPCW Reporting Station
NA  
Wind Chill: 55°   Ceiling: NA
Heat Index: 55°   Visibility: NA
Dew Point: 46°   Wind: 8mph
Humidity: 72%   Direction: 320°NW
Pressure: 30.22"   Gusts: NA
Location:  41.51°N, 83.15°W
Report Text: KPCW 231633Z AUTO 32007KT 13/08 A3022 RMK AO2 $
Loading
Personal Weather Stations






























Interactive Weather Map
Tropical Storm Tracking
New forecast layout! Learn more

10-Day Weather Forecast

Advertisements
Track Severe Weather on mobile